DMSP 5D-2 F13 DEB, 40415

Orbit data source: Space-Track

DMSP 5D-2 F13 DEB, 40415 is space debris in SSO originally from a launch on Fri, 24 Mar 1995 UTC launched from the Air Force Western Test Range (AFWTR). Debris objects in space refer to the collection of defunct objects orbiting the Earth. Examples of debris include non-operational satellites, rocket bodies, and fragments generated from explosions, collisions, or faulty payload assembly.

Loading next visibility...
Identifier
40415, 1995-015AC
Orbit
SSO
Country
Flag of USUS
Related business
Manufacturer
Unknown
Mission
Spacecraft
Bus & Motor
Unknown
Mass
Unknown
Launch date (UTC)
1995-03-24 (31 years ago)
Launch vehicle
Unknown
Launch site
Air Force Western Test Range (AFWTR)
Object type
Payload
Rocket body
Debris
Shape & HBR
Unknown shape, 0.1 m
Radar Cross Section
Small (<0.1 m²)

Expand to show TLE details & history
Last TLE update: 14 hours ago

TLE from 14 hours ago
0 DMSP 5D-2 F13 DEB
1 40415U 95015AC  26062.60293342  .00002796  00000-0  11207-2 0  9996
2 40415  98.7279  89.9796 0004258 277.3341  82.7356 14.29092982570966
Epoch: 2026-03-03T14:28Z
TLE epoch observation values (Epoch: 2026-03-03T14:28:13.447Z)
Latitude
-0.00007°
Longitude
71.54395°
Altitude
797.306 km
Speed
7.455 km/s
True Right ascension
05h 59m 55s
True Declination
0° 00' 00"
Sunlit
Object was in daylight at epoch
Visualization orbit readout
Latitude
Unknown
Longitude
Unknown
Altitude
Unknown
Speed
Unknown
Apparent Right ascension
Unknown
Apparent Declination
Unknown
Sunlit
N/A
Visualization observer readout
Local Sidereal Time
08:45:10
Azimuth
Unknown
Elevation
Unknown
Doppler factor
Unknown
Orbital elements
Apogee altitude
794.965 km
Perigee altitude
788.859 km
Semi-major axis
7,170.049 km
Eccentricity
0.00043
Inclination
98.7279°
RAAN
89.9796°
Arg. of periapsis
277.3341°
True anomaly
82.784°
Mean anomaly
82.7356°
Eccentric anomaly
82.7598°
Mean motion
3.57487 °/min
Orbital period
100.7 mins
BSTAR
0.0011207
Loading maneuver chart data...
Computing Atmospheric mass density...

Documentation

Showing up to 5 results
|